Location: Beverley
(50.2667°N, 107.9667°W)
Time: 08:13:53
(UTC+00:00)

EO-79 - Pass Details

Date: 03 July 2022
Orbit: 588 x 603 km, 98.0° (Epoch: 09 August)

Event Time Altitude Azimuth Distance (km) Brightness Sun altitude
Rises 07:43:43 0° 30° (NNE) 2,858 ? -16.5°
Reaches altitude 10° 07:46:47 10° 54° (NE) 1,952 ? -16.5°
Maximum altitude 07:49:12 15° 89° (E) 1,658 ? -16.4°
Drops below altitude 10° 07:51:36 10° 124° (SE) 1,947 ? -16.4°
Enters shadow 07:51:56 - 127° (SE) 2,026 ? -16.4°
